Find Starlink 5961

NORAD ID: 56914 Int'l Des: 2023-083 Owner: SPXS Country: US Constellation: starlink operational
LEOCIRCULAR

Current View

Loading 3D Globe...

About Starlink 5961

Description loading...

Upcoming Passes

Passes for default location (London). Set your location on the main map for personalized predictions.

Altitude History

Loading altitude history...

Two-Line Element Set

1 56914U 23083AQ 26148.92474045 .00001834 00000-0 76180-4 0 9999
2 56914 43.0051 337.1586 0001504 267.6370 92.4309 15.27574028164070
Epoch: May 28, 2026 • Age: 34 hours

Current Status

Altitude 484.3 km
Velocity 7.63 km/s
Sub-Earth Point 28.93°N, 109.26°E
Launch Date Jun 12, 2023
Age 2.9 years
Type internet

Technical Details

Classification Payload
Mass 305.00 kg
Dry Mass 290.00 kg
Total Mass 305.00 kg
Length 0.20 m
Diameter 2.80 m
Span 9.00 m
Shape Box + pan
Manufacturer SPXS
Bus Type Starlink
Phase Status In Orbit
Owner/State SPXS/US

Most Searched